This is the latest recevied weather packets stored in our database for station/object KJ5IIV. If no packets are shown the sender has not sent any weather packets the latest 10 day(s).
| Time | Temp. | Humidity | Pressure | Rain* | Wind** | Luminosity | Snow |
|---|---|---|---|---|---|---|---|
| 1778100520 | 16.11° C | 88% | 1012.6 hPa | 0 mm | - | 79 W/m² | - |
| 1778100218 | 16.67° C | 88% | 1012.7 hPa | 0 mm | - | 92 W/m² | - |
| 1778099915 | 16.67° C | 88% | 1012.4 hPa | 0 mm | - | 103 W/m² | - |
| 1778099612 | 16.11° C | 88% | 1012.6 hPa | 0 mm | - | 109 W/m² | - |
| 1778099309 | 16.11° C | 89% | 1012.8 hPa | 0 mm | - | 105 W/m² | - |
| 1778099006 | 16.11° C | 88% | 1012.7 hPa | 0 mm | - | 96 W/m² | - |
| 1778098703 | 16.11° C | 88% | 1012.4 hPa | 0 mm | - | 90 W/m² | - |
| 1778098401 | 16.11° C | 88% | 1012.5 hPa | 0 mm | - | 103 W/m² | - |
| 1778098097 | 16.11° C | 88% | 1012.5 hPa | 0 mm | - | 111 W/m² | - |
| 1778097793 | 16.11° C | 88% | 1012.4 hPa | 0 mm | - | 95 W/m² | - |
| 1778097489 | 16.11° C | 88% | 1012.3 hPa | 0 mm | - | 101 W/m² | - |
| 1778097186 | 16.11° C | 88% | 1012.7 hPa | 0 mm | - | 129 W/m² | - |
| 1778096884 | 16.11° C | 87% | 1012.5 hPa | 0 mm | - | 130 W/m² | - |
| 1778096580 | 16.11° C | 88% | 1012.4 hPa | 0 mm | - | 187 W/m² | - |
| 1778096278 | 16.11° C | 89% | 1012.3 hPa | 0 mm | - | 190 W/m² | - |
| 1778095974 | 15.56° C | 88% | 1012.4 hPa | 0 mm | - | 139 W/m² | - |
| 1778095670 | 15.56° C | 87% | 1012 hPa | 0 mm | - | 139 W/m² | - |
| 1778095367 | 16.11° C | 87% | 1012 hPa | 0 mm | - | 151 W/m² | - |
| 1778095064 | 16.11° C | 87% | 1011.8 hPa | 0 mm | - | 263 W/m² | - |
| 1778094760 | 16.11° C | 88% | 1011.5 hPa | 0 mm | - | 359 W/m² | - |
| 1778094458 | 15.56° C | 88% | 1011.7 hPa | 0 mm | - | 225 W/m² | - |
| 1778094154 | 15.56° C | 89% | 1011.9 hPa | 0 mm | - | 244 W/m² | - |
| 1778093851 | 15° C | 89% | 1012 hPa | 0 mm | - | 226 W/m² | - |
| 1778093548 | 15° C | 89% | 1011.8 hPa | 0 mm | - | 230 W/m² | - |
| 1778093245 | 15° C | 89% | 1012.1 hPa | 0 mm | - | 213 W/m² | - |
* Rain latest hour (hover to see other rain measurements)
** Current wind speed in m/s (hover to see current wind gust speed)